Weather History for KLMT - December, 2012

Change the Weather History Date:

Monday, December 24, 2012

  Actual Average Record
Temperature  
Mean Temperature 22 °F 29 °F  
Max Temperature 30 °F 38 °F 53 °F (2005)
Min Temperature 13 °F 20 °F -7 °F (1952)
Degree Days  
Heating Degree Days 43 36  
Month to date heating degree days 820 850  
Since 1 July heating degree days 2290 2652  
Moisture  
Dew Point 20 °F    
Average Humidity 83    
Maximum Humidity 92    
Minimum Humidity 69    
Precipitation  
Precipitation 0.00 in 0.05 in 0.56 in (1964)
Month to date precipitation 1.50 1.15  
Year to date precipitation 9.61 14.66  
Snow  
Snow 0.00 in - - ()
Snow Depth 1.00 in    
Sea Level Pressure  
Sea Level Pressure 30.11 in    
Wind  
Wind Speed 3 mph (South)    
Max Wind Speed 13 mph    
Max Gust Speed 16 mph    
Visibility 10 miles    
Events      
T = Trace of Precipitation, MM = Missing Value Source: NWS Daily Summary

Daily Weather History Graph

Daily Weather History Graph

Search for Another Location

Airport or City:

Trip Planner

Search our weather history database for the weather conditions in past years. The results will help you decide how hot, cold, wet, or windy it might be!

Date:

Astronomy

Dec. 24, 2012 Rise Set
Actual Time 7:33 AM PST 4:40 PM PST
Civil Twilight 7:01 AM PST 5:11 PM PST
Nautical Twilight 6:26 AM PST 5:47 PM PST
Astronomical Twilight 5:52 AM PST 6:21 PM PST
Moon 2:12 PM PST (12/24) 4:15 AM PST (12/24)
Length of Visible Light 10h 10m
Length of Day
9h 06m
Waxing Gibbous, 89% of the Moon is Illuminated
Dec 24
Waxing Gibbous
Dec 28
Full
Jan 4
Last Quarter
Jan 11
New
Jan 18
First Quarter

Hourly Weather History & Observations

Time (PST) Temp. Windchill Dew Point Humidity Pressure Visibility Wind Dir Wind Speed Gust Speed Precip Events Conditions
12:00 AM 28.4 °F 24.6 °F 24.8 °F 86% 29.88 in 10.0 mi NW 3.5 mph - N/A   Overcast
12:26 AM 28.4 °F 24.6 °F 24.8 °F 86% 29.89 in 10.0 mi West 3.5 mph - N/A   Overcast
12:53 AM 28.0 °F 20.0 °F 23.0 °F 81% 29.94 in 10.0 mi NW 8.1 mph - N/A   Mostly Cloudy
1:04 AM 28.4 °F 19.1 °F 23.0 °F 80% 29.91 in 10.0 mi NW 10.4 mph - N/A   Mostly Cloudy
1:53 AM 25.0 °F - 21.0 °F 85% 29.99 in 10.0 mi Calm Calm - N/A   Mostly Cloudy
2:06 AM 24.8 °F - 21.2 °F 86% 29.94 in 10.0 mi Calm Calm - N/A   Scattered Clouds
2:53 AM 24.1 °F 19.7 °F 19.9 °F 84% 30.01 in 10.0 mi West 3.5 mph - N/A   Scattered Clouds
3:53 AM 19.0 °F 12.3 °F 16.0 °F 88% 30.05 in 10.0 mi East 4.6 mph - N/A   Clear
4:53 AM 18.0 °F 12.7 °F 15.1 °F 88% 30.07 in 10.0 mi SE 3.5 mph - N/A   Clear
5:53 AM 16.0 °F 10.4 °F 14.0 °F 92% 30.11 in 10.0 mi SSE 3.5 mph - N/A   Clear
6:01 AM 15.8 °F - 14.0 °F 93% 30.04 in 7.0 mi Calm Calm - N/A   Partly Cloudy
6:53 AM 14.0 °F 6.5 °F 10.9 °F 88% 30.14 in 7.0 mi SSE 4.6 mph - N/A   Partly Cloudy
7:53 AM 16.0 °F - 14.0 °F 92% 30.16 in 7.0 mi Calm Calm - N/A   Partly Cloudy
8:53 AM 17.1 °F - 16.0 °F 96% 30.19 in 10.0 mi Calm Calm - N/A   Partly Cloudy
9:53 AM 23.0 °F 17.0 °F 19.9 °F 88% 30.20 in 10.0 mi East 4.6 mph - N/A   Partly Cloudy
10:53 AM 26.1 °F - 21.9 °F 84% 30.22 in 10.0 mi Calm Calm - N/A   Partly Cloudy
11:53 AM 28.9 °F - 21.9 °F 75% 30.19 in 10.0 mi Calm Calm - N/A   Scattered Clouds
12:53 PM 30.0 °F 25.2 °F 21.9 °F 72% 30.19 in 10.0 mi South 4.6 mph - N/A   Mostly Cloudy
1:53 PM 30.0 °F 23.2 °F 23.0 °F 75% 30.20 in 10.0 mi SSE 6.9 mph - N/A   Mostly Cloudy
2:53 PM 30.0 °F 23.2 °F 23.0 °F 75% 30.21 in 10.0 mi SSE 6.9 mph - N/A   Mostly Cloudy
3:53 PM 30.0 °F 26.5 °F 21.9 °F 72% 30.20 in 10.0 mi ESE 3.5 mph - N/A   Mostly Cloudy
4:53 PM 28.0 °F 20.0 °F 21.0 °F 75% 30.22 in 10.0 mi South 8.1 mph - N/A   Overcast
5:53 PM 27.0 °F 23.0 °F 21.0 °F 78% 30.22 in 10.0 mi SE 3.5 mph - N/A   Overcast
6:53 PM 24.1 °F - 19.0 °F 81% 30.23 in 10.0 mi Calm Calm - N/A   Mostly Cloudy
7:53 PM 24.1 °F 18.2 °F 21.0 °F 88% 30.22 in 10.0 mi NNW 4.6 mph - N/A   Overcast
8:53 PM 25.0 °F 19.3 °F 21.0 °F 85% 30.20 in 10.0 mi NW 4.6 mph - N/A   Overcast
9:53 PM 26.1 °F - 19.0 °F 75% 30.17 in 10.0 mi Calm Calm - N/A   Partly Cloudy
10:53 PM 23.0 °F 14.7 °F 17.1 °F 78% 30.15 in 10.0 mi SSE 6.9 mph - N/A   Clear
11:53 PM 23.0 °F - 18.0 °F 81% 30.14 in 10.0 mi Calm Calm - N/A   Clear